[[{"header":{"parameterUnit":"m.s-1","parameterCategory":1,"la1":30.2991,"la2":30.254,"lo1":-89.0895,"lo2":-89.0444,"dy":0.0017,"dx":0.0017,"nx":28,"ny":28,"refTime":"2024-10-17T03:00:00:Z","depth":0,"parameterNumber":2,"parameterNumberName":"U-component_of_WINDS"},"data":[0,0,0,0,0,0,0,0,0,0,0,0,0,0,0,0,0,0,0,0,0,0,0,0,0,0,0,0,0,0,0,0,0,0,0,0,0,0,0,0,0,0,0,0,0,0,0,0,0,0,0,0,0,0,0,0,0,0,-4.9137,-4.9138,0,-4.9223,-4.9224,-4.9225,-4.9044,-4.9038,-4.9032,-4.9026,-4.9117,-4.9124,-4.9132,0,0,0,0,0,0,0,0,0,0,0,0,0,-4.8817,-4.8824,-4.9137,-4.9138,-4.9139,-4.9222,-4.9224,-4.9225,-4.9045,-4.9037,-4.903,-4.9024,-4.9114,-4.9123,-4.9133,0,0,0,0,0,0,0,0,0,0,0,0,0,-4.8935,-4.8826,-4.9137,-4.9059,-4.9053,-4.9222,-4.9224,-4.9225,-4.9046,-4.9037,-4.9028,-4.902,-4.9111,-4.9122,-4.9134,-4.9384,0,0,-4.917,-4.9175,0,0,0,0,0,0,0,0,-4.8929,-4.8947,-4.9069,-4.9065,-4.9058,-4.9113,-4.9144,-4.9278,-4.9048,-4.9049,-4.9026,-4.9016,-4.9123,-4.9133,-4.9169,-4.9388,-4.9392,-4.9171,-4.9178,-4.9183,-4.9187,0,0,0,0,0,0,0,-4.8921,-4.8942,-4.9171,-4.9071,-4.9065,-4.902,-4.9027,-4.9169,-4.9134,-4.9048,-4.9035,-4.9048,-4.9118,-4.9158,-4.9169,-4.9393,-4.9171,-4.9181,-4.9189,-4.9193,-4.9821,-4.983,0,0,0,0,0,0,-4.8922,-4.8937,-4.9168,-4.9173,-4.897,-4.9033,-4.9041,-4.9105,-4.9132,-4.9128,-4.9055,-4.9039,-4.9142,-4.9156,-4.9172,-4.9466,-4.9183,-4.9194,-4.9201,-4.9811,-4.9823,-4.9833,0,0,0,0,0,0,-4.8916,-4.8945,-4.9164,-4.9052,-4.9076,-4.9048,-4.9121,-4.9111,-4.915,-4.9137,-4.9131,-4.9102,-4.9135,-4.9155,-4.9332,-4.9467,-4.92,-4.9211,-4.98,-4.9815,-4.9828,-5.0057,0,0,0,0,0,0,-4.8908,-4.8943,-4.9038,-4.9055,-4.9083,-4.9324,-4.9129,-4.9119,-4.9171,-4.9151,-4.918,-4.9176,-4.913,-4.9315,-4.9344,-4.9478,-4.922,-4.9788,-4.9806,-4.9823,-5.0038,-5.0078,-5.0112,0,0,0,0,0,-4.8897,-4.91,-4.9044,-4.9073,-4.92,-4.9332,-4.9348,-4.929,-4.9183,-4.9278,-4.9269,-4.9175,-4.9447,-4.9335,-4.9365,-4.9506,-4.9779,-4.9801,-4.9822,-5.0021,-5.007,-5.0111,0,0,0,0,0,0,-4.9101,-4.9101,-4.9039,-4.9253,-4.9294,-4.9301,-4.9419,-4.9344,-4.9417,-4.9395,-4.932,-4.9329,-4.952,-4.953,-4.9405,-4.9748,-4.9595,-4.9623,-4.9735,-4.9782,-4.9818,-4.9813,-4.923,0,0,0,0,0,-4.917,-4.9277,-4.9271,-4.946,-4.9484,-4.9449,-4.9504,-4.9455,-4.9495,-4.9512,-4.9516,-4.9559,-4.9653,-4.9717,-4.9804,-5.0037,-5.0041,-5.0148,-5.0185,-5.0216,-5.0242,-5.0367,-5.0414,-4.9904,-4.9904,-4.9903,0,0,-4.9316,-4.9329,-4.9401,-4.9502,-4.9528,-4.964,-4.9465,-4.9591,-4.9673,-4.9531,-4.9698,-4.9703,-4.9745,-4.9952,-5.0043,-4.9966,-5.0384,-5.0243,-5.0268,-5.0278,-5.0394,-5.0442,-5.0485,-4.9918,-4.9916,-4.9913,0,0,-4.9639,-4.9659,-4.9819,-4.9848,-4.9889,-4.9864,-4.9903,-4.9921,-4.9919,-5.0085,-4.9981,-5.0077,-5.0242,-5.0277,-5.0316,-5.065,-5.0567,-5.068,-5.0876,-5.0998,-5.1038,-5.1073,-5.1194,-5.1238,-5.0706,-5.0707,-5.0707,0,-4.9815,-4.998,-4.9911,-5.0045,-5.0093,-4.9967,-5.0129,-5.016,-5.0229,-5.0265,-5.0177,-5.038,-5.04,-5.0613,-5.0694,-5.0729,-5.0772,-5.0678,-5.1038,-5.1072,-5.1104,-5.1219,-5.1264,-5.072,-5.0719,-5.0717,-5.0716,0,-5.0194,-5.031,-5.0435,-5.0503,-5.0563,-5.0711,-5.0665,-5.0736,-5.0681,-5.0666,-5.0837,-5.0855,-5.0943,-5.0989,-5.0938,-5.1196,-5.1146,-5.105,-5.0894,-5.1168,-5.1274,-5.1317,-5.074,-5.0735,-5.0731,-5.0728,0,0,-5.0651,-5.0677,-5.0725,-5.0754,-5.0789,-5.0877,-5.1018,-5.1103,-5.1166,-5.1216,-5.1333,-5.1474,-5.1384,-5.1429,-5.138,-5.1487,-5.1752,-5.1377,-5.1376,-5.1447,-5.2037,-5.2112,-5.2164,-5.1696,-5.1704,-5.171,-5.2034,0,-5.0972,-5.1215,-5.1157,-5.1397,-5.1503,-5.1384,-5.1507,-5.1542,-5.1531,-5.1619,-5.1606,-5.1708,-5.1581,-5.1607,-5.1707,-5.1699,-5.187,-5.1674,-5.1806,-5.1811,-5.1801,-5.2219,-5.2298,-5.2604,-5.2075,-5.2082,-5.2087,0,-5.138,-5.1445,-5.1696,-5.1713,-5.1755,-5.1867,-5.194,-5.2025,-5.2063,-5.2046,-5.2096,-5.2026,-5.2165,-5.2007,-5.2199,-5.2067,-5.2117,-5.2121,-5.2131,-5.2143,-5.1968,-5.2244,-5.2699,-5.2746,-5.2152,-5.2146,-5.2142,0,-5.169,-5.184,-5.2009,-5.2037,-5.2061,-5.2142,-5.2156,-5.2184,-5.2239,-5.2302,-5.2337,-5.2417,-5.2461,-5.2525,-5.2478,-5.2366,-5.2678,-5.2515,-5.267,-5.2672,-5.2743,-5.274,-5.3215,-5.2772,-5.2772,-5.2771,-5.277,0,-5.2055,-5.2214,-5.2148,-5.2254,-5.2427,-5.2358,-5.2533,-5.2532,-5.2558,-5.2661,-5.2562,-5.2661,-5.2592,-5.2685,-5.2649,-5.2814,-5.2834,-5.2826,-5.2815,-5.2836,-5.2838,-5.287,-5.2848,-5.2783,-5.278,-5.2778,-5.2776,0,-5.2433,-5.2395,-5.2572,-5.2579,-5.2584,-5.2713,-5.2719,-5.2816,-5.2796,-5.2927,-5.2954,-5.2924,-5.3028,-5.2986,-5.3097,-5.3072,-5.3285,-5.3244,-5.3273,-5.3263,-5.3421,-5.3407,-5.3935,-5.4001,-5.3514,-5.3519,-5.3523,0,-5.267,-5.2789,-5.2808,-5.287,-5.289,-5.299,-5.3045,-5.2981,-5.3042,-5.3093,-5.3185,-5.3279,-5.3352,-5.3524,-5.3513,-5.3597,-5.3559,-5.3738,-5.3571,-5.3589,-5.3564,-5.3559,-5.3571,-5.3773,-5.3778,-5.3783,-5.3787,0,-5.3095,-5.307,-5.3153,-5.323,-5.3298,-5.3355,-5.3404,-5.3459,-5.3397,-5.3472,-5.3576,-5.3633,-5.3745,-5.3841,-5.3916,-5.3929,-5.385,-5.3839,-5.3879,-5.3904,-5.3916,-5.3913,-5.3366,-5.3828,-5.3824,-5.3821,-5.3818,-5.3817,-5.3411,-5.3511,-5.3541,-5.3636,-5.3665,-5.3713,-5.3804,-5.3795,-5.3881,-5.3967,-5.3923,-5.4046,-5.4078,-5.417,-5.4195,-5.429,-5.422,-5.4278,-5.4293,-5.431,-5.4331,-5.3899,-5.4303,-5.4301,-5.43,-5.4299,-5.4298,0,-5.3833,-5.3845,-5.3933,-5.4004,-5.4079,-5.3994,-5.4043,-5.4112,-5.422,-5.4257,-5.433,-5.4451,-5.4543,-5.4538,-5.4623,-5.47,-5.4666,-5.4725,-5.472,-5.4725,-5.4388,-5.4345,-5.4752,-5.4752,-5.4752,-5.4751,-5.4751,-5.4751,-5.4061,-5.4227,-5.4205,-5.4384,-5.4395,-5.4513,-5.4549,-5.4592,-5.4621,-5.476,-5.4836,-5.4831,-5.4851,-5.4936,-5.5018,-5.5013,-5.505,-5.5125,-5.5107,-5.4793,-5.4748,-5.4706,-5.4665,-5.5133,-5.5133,-5.5436,-5.5439,-5.5441]},{"header":{"parameterUnit":"m.s-1","parameterCategory":1,"la1":30.2991,"la2":30.254,"lo1":-89.0895,"lo2":-89.0444,"dy":0.0017,"dx":0.0017,"nx":28,"ny":28,"refTime":"2024-10-17T03:00:00:Z","depth":0,"parameterNumber":3,"parameterNumberName":"V-component_of_WINDS"},"data":[0,0,0,0,0,0,0,0,0,0,0,0,0,0,0,0,0,0,0,0,0,0,0,0,0,0,0,0,0,0,0,0,0,0,0,0,0,0,0,0,0,0,0,0,0,0,0,0,0,0,0,0,0,0,0,0,0,0,-3.899,-3.8991,0,-3.9025,-3.9026,-3.9026,-3.8998,-3.8997,-3.8996,-3.8995,-3.9028,-3.903,-3.9032,0,0,0,0,0,0,0,0,0,0,0,0,0,-3.8896,-3.8898,-3.899,-3.8991,-3.8991,-3.9025,-3.9026,-3.9026,-3.8998,-3.8997,-3.8996,-3.8994,-3.9028,-3.903,-3.9032,0,0,0,0,0,0,0,0,0,0,0,0,0,-3.8934,-3.8898,-3.899,-3.8982,-3.8981,-3.9025,-3.9026,-3.9026,-3.8999,-3.8997,-3.8995,-3.8994,-3.9027,-3.903,-3.9033,-3.9087,0,0,-3.9042,-3.9043,0,0,0,0,0,0,0,0,-3.8932,-3.8938,-3.8982,-3.8982,-3.8982,-3.9006,-3.9005,-3.9046,-3.8999,-3.8992,-3.8995,-3.8993,-3.9022,-3.9025,-3.9036,-3.9088,-3.909,-3.9042,-3.9044,-3.9045,-3.9046,0,0,0,0,0,0,0,-3.893,-3.8936,-3.9004,-3.8983,-3.8983,-3.8975,-3.8978,-3.9012,-3.9016,-3.8992,-3.8991,-3.8995,-3.9022,-3.9033,-3.9036,-3.909,-3.9042,-3.9045,-3.9047,-3.9048,-3.9185,-3.9186,0,0,0,0,0,0,-3.8928,-3.8934,-3.9003,-3.9005,-3.8952,-3.8978,-3.8982,-3.9,-3.9016,-3.9017,-3.8997,-3.8994,-3.9029,-3.9033,-3.9037,-3.9099,-3.9045,-3.9048,-3.905,-3.9183,-3.9185,-3.9187,0,0,0,0,0,0,-3.8926,-3.8935,-3.9002,-3.8969,-3.8977,-3.8981,-3.9002,-3.9001,-3.9013,-3.9019,-3.9019,-3.9008,-3.9027,-3.9033,-3.9074,-3.9099,-3.9049,-3.9052,-3.9181,-3.9183,-3.9186,-3.9223,0,0,0,0,0,0,-3.8924,-3.8934,-3.8956,-3.897,-3.8979,-3.9039,-3.9003,-3.9003,-3.9018,-3.9015,-3.903,-3.903,-3.9026,-3.907,-3.9077,-3.9103,-3.9054,-3.9178,-3.9182,-3.9185,-3.922,-3.9227,-3.9233,0,0,0,0,0,-3.892,-3.8965,-3.8957,-3.8965,-3.9006,-3.904,-3.9045,-3.9041,-3.902,-3.9041,-3.9045,-3.903,-3.9096,-3.9074,-3.9082,-3.9109,-3.9177,-3.9181,-3.9185,-3.9217,-3.9226,-3.9233,0,0,0,0,0,0,-3.8954,-3.8967,-3.8958,-3.9009,-3.9024,-3.9036,-3.9062,-3.9051,-3.9071,-3.9067,-3.9059,-3.9063,-3.9105,-3.9112,-3.9087,-3.916,-3.9133,-3.9139,-3.9154,-3.9163,-3.9169,-3.9166,-3.9057,0,0,0,0,0,-3.8968,-3.8995,-3.9005,-3.9049,-3.9057,-3.9058,-3.9073,-3.9068,-3.9082,-3.9088,-3.9095,-3.9109,-3.9133,-3.9148,-3.9171,-3.9221,-3.9222,-3.9243,-3.925,-3.9256,-3.926,-3.9284,-3.9292,-3.92,-3.92,-3.92,0,0,-3.8996,-3.9006,-3.9024,-3.9056,-3.9067,-3.9093,-3.9064,-3.9094,-3.9114,-3.9093,-3.9131,-3.9136,-3.9151,-3.9196,-3.9216,-3.9203,-3.9286,-3.9261,-3.9265,-3.9267,-3.9289,-3.9298,-3.9305,-3.9203,-3.9203,-3.9202,0,0,-3.906,-3.9072,-3.9108,-3.9119,-3.9136,-3.9136,-3.9144,-3.9158,-3.916,-3.9199,-3.9182,-3.9205,-3.9247,-3.9257,-3.9268,-3.9333,-3.9319,-3.934,-3.9375,-3.9398,-3.9405,-3.9411,-3.9432,-3.944,-3.9345,-3.9346,-3.9346,0,-3.9092,-3.9133,-3.9128,-3.9159,-3.9172,-3.9154,-3.9189,-3.92,-3.9223,-3.9232,-3.9217,-3.9266,-3.9276,-3.9321,-3.9336,-3.9347,-3.9354,-3.9338,-3.9405,-3.9411,-3.9417,-3.9436,-3.9444,-3.9348,-3.9348,-3.9347,-3.9347,0,-3.917,-3.9199,-3.9226,-3.9248,-3.9264,-3.9297,-3.9295,-3.9312,-3.9305,-3.9306,-3.9344,-3.9354,-3.9377,-3.9387,-3.9381,-3.9431,-3.9422,-3.9406,-3.9378,-3.9428,-3.9446,-3.9453,-3.9351,-3.935,-3.935,-3.9349,0,0,-3.9257,-3.9274,-3.9284,-3.9292,-3.9308,-3.9329,-3.936,-3.9382,-3.9395,-3.9412,-3.9435,-3.947,-3.9455,-3.9467,-3.9462,-3.9482,-3.9529,-3.9463,-3.9463,-3.9473,-3.9581,-3.9591,-3.96,-3.9521,-3.9522,-3.9523,-3.9579,0,-3.9319,-3.9374,-3.9369,-3.942,-3.9444,-3.9427,-3.9453,-3.9465,-3.9467,-3.9486,-3.9488,-3.9511,-3.9491,-3.9498,-3.9518,-3.9519,-3.955,-3.9516,-3.9541,-3.9542,-3.9535,-3.961,-3.9621,-3.9673,-3.9586,-3.9587,-3.9588,0,-3.94,-3.9417,-3.9471,-3.948,-3.949,-3.9514,-3.9532,-3.9552,-3.9564,-3.9563,-3.9576,-3.9566,-3.9595,-3.9568,-3.9607,-3.9583,-3.9593,-3.9595,-3.9597,-3.9597,-3.9567,-3.9609,-3.969,-3.9696,-3.96,-3.9599,-3.9598,0,-3.9454,-3.9491,-3.9527,-3.9535,-3.9547,-3.9564,-3.957,-3.958,-3.9592,-3.9608,-3.9616,-3.9635,-3.9645,-3.9659,-3.9654,-3.9635,-3.9693,-3.9666,-3.9691,-3.9691,-3.9702,-3.9701,-3.9783,-3.9713,-3.9713,-3.9713,-3.9713,0,-3.9522,-3.9555,-3.955,-3.9572,-3.9607,-3.96,-3.9635,-3.9638,-3.9647,-3.9668,-3.9655,-3.9674,-3.9668,-3.9686,-3.9683,-3.9714,-3.9719,-3.9718,-3.9716,-3.9718,-3.9717,-3.9722,-3.9718,-3.9715,-3.9715,-3.9714,-3.9714,0,-3.9588,-3.9587,-3.9624,-3.9632,-3.9635,-3.966,-3.9666,-3.9685,-3.9686,-3.9712,-3.9717,-3.9717,-3.9738,-3.9735,-3.976,-3.9757,-3.9794,-3.9789,-3.979,-3.9788,-3.9812,-3.9809,-3.9898,-3.9908,-3.9834,-3.9835,-3.9836,0,-3.9631,-3.9655,-3.9665,-3.9678,-3.9685,-3.9706,-3.9718,-3.9712,-3.9725,-3.9739,-3.9756,-3.9776,-3.9791,-3.9826,-3.9827,-3.9844,-3.9838,-3.9868,-3.9841,-3.9841,-3.9835,-3.9833,-3.9834,-3.9873,-3.9874,-3.9874,-3.9875,0,-3.9706,-3.9703,-3.9722,-3.9739,-3.9754,-3.9767,-3.9779,-3.9791,-3.9785,-3.98,-3.9821,-3.9833,-3.9857,-3.9876,-3.9892,-3.9896,-3.9884,-3.9884,-3.989,-3.9891,-3.9889,-3.9887,-3.9802,-3.9881,-3.9881,-3.988,-3.988,-3.988,-3.9759,-3.9779,-3.9788,-3.9808,-3.9816,-3.9827,-3.9845,-3.9846,-3.9864,-3.9882,-3.9878,-3.9901,-3.991,-3.993,-3.9936,-3.9953,-3.9942,-3.9952,-3.9954,-3.9956,-3.9957,-3.9888,-3.9956,-3.9956,-3.9956,-3.9956,-3.9956,0,-3.9831,-3.9835,-3.9854,-3.987,-3.9885,-3.9873,-3.9885,-3.9898,-3.9919,-3.9928,-3.9943,-3.9966,-3.9984,-3.9986,-4.0003,-4.0016,-4.001,-4.002,-4.0018,-4.0019,-3.9968,-3.9959,-4.0024,-4.0024,-4.0024,-4.0024,-4.0024,-4.0024,-3.987,-3.9901,-3.9899,-3.9933,-3.9937,-3.996,-3.9967,-3.9976,-3.9983,-4.0009,-4.0024,-4.0025,-4.0031,-4.0048,-4.0063,-4.0063,-4.0068,-4.008,-4.0077,-4.0029,-4.0023,-4.0016,-4.0008,-4.0082,-4.0082,-4.0126,-4.0127,-4.0127]}]]